PRSMR SBSJ-SBSJ

Flight info

Callsign PRSMR
Flight time 1h 28m
Altitude 5000
Route REA
Aircraft C152/L-S/C

Departure

Time 2026-04-27 01:16
Airport Professor Urbano Ernesto Stumpf Airport (SBSJ)

Arrival

Time 2026-04-27 02:44
Airport Professor Urbano Ernesto Stumpf Airport (SBSJ)
Time Latitude Longitude Altitude Speed Heading
2026-04-27 00:31 -23.24644 -45.85961 2132 ft 0 kts 106°
2026-04-27 01:04 -23.24645 -45.85960 2132 ft 1 kts 95°
2026-04-27 01:04 -23.24630 -45.85934 2132 ft 8 kts 67°
2026-04-27 01:04 -23.24594 -45.85869 2132 ft 11 kts 45°
2026-04-27 01:04 -23.24526 -45.85800 2132 ft 14 kts 45°
2026-04-27 01:05 -23.24450 -45.85720 2132 ft 14 kts 45°
2026-04-27 01:05 -23.24376 -45.85642 2132 ft 14 kts 46°
2026-04-27 01:05 -23.24304 -45.85564 2132 ft 14 kts 44°
2026-04-27 01:05 -23.24233 -45.85488 2133 ft 14 kts 45°
2026-04-27 01:06 -23.24163 -45.85412 2133 ft 14 kts 45°
2026-04-27 01:06 -23.24093 -45.85336 2133 ft 14 kts 43°
2026-04-27 01:06 -23.24006 -45.85290 2133 ft 13 kts 360°
2026-04-27 01:06 -23.23909 -45.85288 2133 ft 13 kts
2026-04-27 01:07 -23.23814 -45.85277 2133 ft 13 kts
2026-04-27 01:07 -23.23726 -45.85290 2133 ft 13 kts 322°
2026-04-27 01:07 -23.23653 -45.85334 2133 ft 12 kts 37°
2026-04-27 01:07 -23.23589 -45.85272 2133 ft 12 kts 44°
2026-04-27 01:08 -23.23515 -45.85274 2133 ft 12 kts 319°
2026-04-27 01:08 -23.23448 -45.85334 2133 ft 12 kts 315°
2026-04-27 01:08 -23.23385 -45.85403 2133 ft 13 kts 315°
2026-04-27 01:08 -23.23314 -45.85480 2132 ft 15 kts 315°
2026-04-27 01:09 -23.23233 -45.85567 2132 ft 17 kts 315°
2026-04-27 01:09 -23.23145 -45.85663 2132 ft 18 kts 313°
2026-04-27 01:09 -23.23052 -45.85765 2132 ft 19 kts 314°
2026-04-27 01:09 -23.22957 -45.85869 2132 ft 19 kts 315°
2026-04-27 01:10 -23.22861 -45.85972 2132 ft 19 kts 314°
2026-04-27 01:10 -23.22766 -45.86074 2132 ft 19 kts 315°
2026-04-27 01:10 -23.22673 -45.86176 2132 ft 18 kts 314°
2026-04-27 01:10 -23.22581 -45.86276 2132 ft 18 kts 315°
2026-04-27 01:11 -23.22490 -45.86374 2132 ft 18 kts 315°
2026-04-27 01:11 -23.22400 -45.86470 2132 ft 18 kts 315°
2026-04-27 01:11 -23.22352 -45.86533 2132 ft 10 kts 279°
2026-04-27 01:11 -23.22390 -45.86590 2132 ft 8 kts 224°
2026-04-27 01:12 -23.22398 -45.86599 2132 ft 0 kts 225°
2026-04-27 01:13 -23.22419 -45.86622 2132 ft 8 kts 225°
2026-04-27 01:13 -23.22473 -45.86647 2132 ft 10 kts 133°
2026-04-27 01:14 -23.22481 -45.86638 2132 ft 0 kts 134°
2026-04-27 01:14 -23.22625 -45.86482 2132 ft 54 kts 135°
2026-04-27 01:15 -23.22969 -45.86111 2199 ft 74 kts 129°
2026-04-27 01:15 -23.23346 -45.85730 2363 ft 73 kts 132°
2026-04-27 01:15 -23.23719 -45.85335 2507 ft 75 kts 130°
2026-04-27 01:15 -23.24109 -45.84923 2649 ft 79 kts 132°
2026-04-27 01:16 -23.24609 -45.84684 2824 ft 80 kts 172°
2026-04-27 01:16 -23.25149 -45.84809 2986 ft 81 kts 209°
2026-04-27 01:16 -23.25621 -45.85149 3149 ft 82 kts 217°
2026-04-27 01:16 -23.26142 -45.85564 3133 ft 99 kts 218°
2026-04-27 01:17 -23.26522 -45.86187 3110 ft 99 kts 261°
2026-04-27 01:17 -23.26493 -45.86921 3112 ft 96 kts 280°
2026-04-27 01:17 -23.26408 -45.87633 3193 ft 88 kts 280°
2026-04-27 01:17 -23.26331 -45.88318 3177 ft 93 kts 280°
2026-04-27 01:18 -23.26253 -45.89026 3172 ft 95 kts 280°
2026-04-27 01:18 -23.26177 -45.89749 3171 ft 96 kts 280°
2026-04-27 01:18 -23.26102 -45.90474 3171 ft 96 kts 280°
2026-04-27 01:18 -23.26024 -45.91196 3171 ft 96 kts 280°
2026-04-27 01:19 -23.25944 -45.91926 3169 ft 96 kts 280°
2026-04-27 01:19 -23.25866 -45.92641 3167 ft 95 kts 280°
2026-04-27 01:19 -23.25784 -45.93368 3167 ft 95 kts 280°
2026-04-27 01:19 -23.25702 -45.94087 3169 ft 95 kts 280°
2026-04-27 01:20 -23.25618 -45.94798 3171 ft 97 kts 282°
2026-04-27 01:20 -23.25443 -45.95495 3339 ft 92 kts 289°
2026-04-27 01:20 -23.25260 -45.96130 3551 ft 84 kts 289°
2026-04-27 01:20 -23.25093 -45.96714 3757 ft 78 kts 289°
2026-04-27 01:21 -23.24939 -45.97262 3962 ft 73 kts 288°
2026-04-27 01:21 -23.24789 -45.97788 4129 ft 73 kts 288°
2026-04-27 01:21 -23.24640 -45.98315 4295 ft 72 kts 288°
2026-04-27 01:21 -23.24494 -45.98830 4468 ft 70 kts 289°
2026-04-27 01:22 -23.24356 -45.99323 4644 ft 66 kts 289°
2026-04-27 01:22 -23.24209 -45.99792 4810 ft 65 kts 290°
2026-04-27 01:22 -23.24051 -46.00281 4881 ft 77 kts 291°
2026-04-27 01:22 -23.23855 -46.00861 4866 ft 84 kts 292°
2026-04-27 01:23 -23.23645 -46.01474 4858 ft 87 kts 292°
2026-04-27 01:23 -23.23432 -46.02097 4854 ft 88 kts 292°
2026-04-27 01:23 -23.23213 -46.02731 4855 ft 88 kts 292°
2026-04-27 01:23 -23.22994 -46.03360 4862 ft 88 kts 292°
2026-04-27 01:24 -23.22776 -46.03990 4866 ft 89 kts 292°
2026-04-27 01:24 -23.22557 -46.04620 4863 ft 89 kts 292°
2026-04-27 01:24 -23.22338 -46.05249 4866 ft 89 kts 292°
2026-04-27 01:24 -23.22120 -46.05882 4865 ft 89 kts 292°
2026-04-27 01:25 -23.21898 -46.06520 4866 ft 89 kts 292°
2026-04-27 01:25 -23.21679 -46.07160 4868 ft 89 kts 292°
2026-04-27 01:25 -23.21463 -46.07790 4875 ft 88 kts 292°
2026-04-27 01:25 -23.21249 -46.08415 4879 ft 88 kts 291°
2026-04-27 01:26 -23.21057 -46.09060 4879 ft 88 kts 289°
2026-04-27 01:26 -23.20872 -46.09704 4881 ft 88 kts 289°
2026-04-27 01:26 -23.20689 -46.10342 4881 ft 89 kts 289°
2026-04-27 01:26 -23.20503 -46.10986 4881 ft 89 kts 289°
2026-04-27 01:27 -23.20316 -46.11636 4879 ft 89 kts 289°
2026-04-27 01:27 -23.20127 -46.12285 4876 ft 90 kts 289°
2026-04-27 01:27 -23.19940 -46.12937 4872 ft 89 kts 290°
2026-04-27 01:27 -23.19753 -46.13594 4870 ft 90 kts 289°
2026-04-27 01:28 -23.19572 -46.14240 4872 ft 89 kts 289°
2026-04-27 01:28 -23.19388 -46.14899 4875 ft 89 kts 289°
2026-04-27 01:28 -23.19208 -46.15548 4872 ft 89 kts 289°
2026-04-27 01:28 -23.19026 -46.16193 4871 ft 89 kts 289°
2026-04-27 01:29 -23.18842 -46.16845 4871 ft 88 kts 290°
2026-04-27 01:29 -23.18659 -46.17487 4873 ft 89 kts 289°
2026-04-27 01:29 -23.18473 -46.18128 4881 ft 88 kts 290°
2026-04-27 01:29 -23.18286 -46.18769 4876 ft 89 kts 289°
2026-04-27 01:30 -23.18095 -46.19409 4874 ft 88 kts 289°
2026-04-27 01:30 -23.17903 -46.20052 4881 ft 88 kts 289°
2026-04-27 01:30 -23.17723 -46.20690 4880 ft 88 kts 289°
2026-04-27 01:30 -23.17549 -46.21331 4884 ft 88 kts 289°
2026-04-27 01:31 -23.17378 -46.21971 4893 ft 88 kts 288°
2026-04-27 01:31 -23.17211 -46.22620 4901 ft 88 kts 288°
2026-04-27 01:31 -23.17051 -46.23272 4891 ft 89 kts 287°
2026-04-27 01:31 -23.16887 -46.23930 4893 ft 89 kts 288°
2026-04-27 01:32 -23.16722 -46.24580 4886 ft 90 kts 288°
2026-04-27 01:32 -23.16554 -46.25240 4878 ft 90 kts 288°
2026-04-27 01:32 -23.16385 -46.25898 4887 ft 89 kts 288°
2026-04-27 01:32 -23.16213 -46.26548 4899 ft 90 kts 287°
2026-04-27 01:33 -23.16045 -46.27216 4881 ft 91 kts 287°
2026-04-27 01:33 -23.15879 -46.27884 4868 ft 89 kts 287°
2026-04-27 01:33 -23.15719 -46.28534 4885 ft 88 kts 287°
2026-04-27 01:33 -23.15565 -46.29174 4893 ft 88 kts 288°
2026-04-27 01:34 -23.15409 -46.29836 4878 ft 88 kts 286°
2026-04-27 01:34 -23.15258 -46.30481 4881 ft 87 kts 286°
2026-04-27 01:34 -23.15110 -46.31115 4905 ft 88 kts 287°
2026-04-27 01:34 -23.14958 -46.31773 4901 ft 90 kts 287°
2026-04-27 01:35 -23.14804 -46.32437 4892 ft 90 kts 287°
2026-04-27 01:35 -23.14651 -46.33109 4892 ft 90 kts 287°
2026-04-27 01:35 -23.14499 -46.33766 4892 ft 90 kts 287°
2026-04-27 01:35 -23.14343 -46.34432 4888 ft 89 kts 286°
2026-04-27 01:36 -23.14199 -46.35085 4886 ft 89 kts 282°
2026-04-27 01:36 -23.14105 -46.35755 4886 ft 89 kts 281°
2026-04-27 01:36 -23.14018 -46.36430 4883 ft 89 kts 281°
2026-04-27 01:36 -23.13928 -46.37098 4893 ft 89 kts 280°
2026-04-27 01:37 -23.13835 -46.37769 4887 ft 90 kts 280°
2026-04-27 01:37 -23.13740 -46.38437 4883 ft 89 kts 280°
2026-04-27 01:37 -23.13643 -46.39109 4812 ft 90 kts 281°
2026-04-27 01:37 -23.13547 -46.39780 4697 ft 91 kts 282°
2026-04-27 01:38 -23.13446 -46.40477 4583 ft 93 kts 281°
2026-04-27 01:38 -23.13345 -46.41169 4465 ft 93 kts 283°
2026-04-27 01:38 -23.13212 -46.41869 4347 ft 94 kts 284°
2026-04-27 01:38 -23.13102 -46.42574 4235 ft 95 kts 280°
2026-04-27 01:39 -23.13064 -46.43295 4113 ft 96 kts 274°
2026-04-27 01:39 -23.13050 -46.44021 3999 ft 96 kts 275°
2026-04-27 01:39 -23.13026 -46.44751 3882 ft 96 kts 275°
2026-04-27 01:39 -23.12995 -46.45490 3766 ft 97 kts 276°
2026-04-27 01:40 -23.12955 -46.46200 3778 ft 93 kts 276°
2026-04-27 01:40 -23.12917 -46.46901 3783 ft 92 kts 276°
2026-04-27 01:40 -23.12882 -46.47588 3785 ft 90 kts 276°
2026-04-27 01:40 -23.12853 -46.48272 3787 ft 89 kts 275°
2026-04-27 01:41 -23.12831 -46.48959 3667 ft 93 kts 275°
2026-04-27 01:41 -23.12812 -46.49672 3571 ft 93 kts 276°
2026-04-27 01:41 -23.12784 -46.50387 3453 ft 94 kts 277°
2026-04-27 01:41 -23.12751 -46.51102 3355 ft 94 kts 277°
2026-04-27 01:42 -23.12717 -46.51818 3282 ft 95 kts 277°
2026-04-27 01:42 -23.12683 -46.52545 3251 ft 94 kts 277°
2026-04-27 01:42 -23.12648 -46.53250 3244 ft 93 kts 276°
2026-04-27 01:42 -23.12617 -46.53933 3258 ft 93 kts 276°
2026-04-27 01:43 -23.12601 -46.54636 3257 ft 93 kts 273°
2026-04-27 01:43 -23.12634 -46.55356 3253 ft 94 kts 269°
2026-04-27 01:43 -23.12690 -46.56056 3214 ft 92 kts 269°
2026-04-27 01:43 -23.12749 -46.56749 3214 ft 91 kts 269°
2026-04-27 01:44 -23.12792 -46.57447 3217 ft 93 kts 270°
2026-04-27 01:44 -23.12826 -46.58157 3211 ft 94 kts 271°
2026-04-27 01:44 -23.12893 -46.58863 3203 ft 92 kts 253°
2026-04-27 01:44 -23.13335 -46.59362 3207 ft 95 kts 206°
2026-04-27 01:45 -23.13988 -46.59517 3201 ft 96 kts 189°
2026-04-27 01:45 -23.14612 -46.59448 3172 ft 88 kts 152°
2026-04-27 01:45 -23.15005 -46.58981 3126 ft 82 kts 108°
2026-04-27 01:45 -23.15167 -46.58384 3120 ft 80 kts 97°
2026-04-27 01:46 -23.15026 -46.57844 3080 ft 76 kts 32°
2026-04-27 01:46 -23.14539 -46.57652 2969 ft 74 kts
2026-04-27 01:46 -23.14030 -46.57575 2848 ft 70 kts
2026-04-27 01:46 -23.13524 -46.57535 2694 ft 72 kts
2026-04-27 01:47 -23.13049 -46.57490 2630 ft 59 kts
2026-04-27 01:47 -23.12567 -46.57445 2732 ft 69 kts 359°
2026-04-27 01:47 -23.12090 -46.57383 2893 ft 68 kts
2026-04-27 01:47 -23.11628 -46.57413 3052 ft 66 kts 327°
2026-04-27 01:48 -23.11354 -46.57839 3195 ft 72 kts 290°
2026-04-27 01:48 -23.11216 -46.58367 3384 ft 71 kts 286°
2026-04-27 01:48 -23.11101 -46.58876 3556 ft 70 kts 286°
2026-04-27 01:48 -23.10988 -46.59399 3724 ft 71 kts 285°
2026-04-27 01:49 -23.10879 -46.59916 3901 ft 69 kts 285°
2026-04-27 01:49 -23.10774 -46.60418 4071 ft 68 kts 285°
2026-04-27 01:49 -23.10663 -46.60916 4243 ft 68 kts 285°
2026-04-27 01:49 -23.10550 -46.61421 4401 ft 68 kts 286°
2026-04-27 01:50 -23.10431 -46.61937 4506 ft 76 kts 286°
2026-04-27 01:50 -23.10289 -46.62529 4485 ft 83 kts 287°
2026-04-27 01:50 -23.10137 -46.63160 4482 ft 87 kts 287°
2026-04-27 01:50 -23.10126 -46.63831 4483 ft 91 kts 268°
2026-04-27 01:51 -23.10203 -46.64534 4490 ft 93 kts 268°
2026-04-27 01:51 -23.10261 -46.65246 4479 ft 94 kts 270°
2026-04-27 01:51 -23.10302 -46.65958 4475 ft 94 kts 270°
2026-04-27 01:51 -23.10364 -46.66668 4475 ft 94 kts 267°
2026-04-27 01:52 -23.10466 -46.67380 4471 ft 95 kts 264°
2026-04-27 01:52 -23.10587 -46.68083 4471 ft 94 kts 264°
2026-04-27 01:52 -23.10712 -46.68790 4472 ft 94 kts 264°
2026-04-27 01:52 -23.10838 -46.69494 4474 ft 94 kts 264°
2026-04-27 01:53 -23.10961 -46.70193 4469 ft 94 kts 264°
2026-04-27 01:53 -23.11088 -46.70894 4467 ft 94 kts 263°
2026-04-27 01:53 -23.11214 -46.71595 4468 ft 94 kts 264°
2026-04-27 01:53 -23.11338 -46.72300 4468 ft 94 kts 263°
2026-04-27 01:54 -23.11606 -46.72958 4467 ft 97 kts 245°
2026-04-27 01:54 -23.11959 -46.73596 4465 ft 97 kts 246°
2026-04-27 01:54 -23.12294 -46.74234 4466 ft 96 kts 246°
2026-04-27 01:54 -23.12618 -46.74876 4373 ft 97 kts 247°
2026-04-27 01:55 -23.12942 -46.75528 4252 ft 98 kts 247°
2026-04-27 01:55 -23.13267 -46.76192 4138 ft 98 kts 249°
2026-04-27 01:55 -23.13575 -46.76849 4113 ft 95 kts 248°
2026-04-27 01:55 -23.13866 -46.77492 4121 ft 94 kts 250°
2026-04-27 01:56 -23.14446 -46.78780 4125 ft 94 kts 250°
2026-04-27 01:56 -23.14736 -46.79423 4122 ft 94 kts 250°
2026-04-27 01:56 -23.15025 -46.80064 4121 ft 93 kts 249°
2026-04-27 01:57 -23.15314 -46.80687 4129 ft 93 kts 248°
2026-04-27 01:57 -23.15614 -46.81318 4133 ft 93 kts 249°
2026-04-27 01:57 -23.15924 -46.81949 4132 ft 94 kts 248°
2026-04-27 01:57 -23.16241 -46.82566 4126 ft 94 kts 245°
2026-04-27 01:58 -23.16583 -46.83186 4123 ft 94 kts 244°
2026-04-27 01:58 -23.16925 -46.83801 4126 ft 94 kts 245°
2026-04-27 01:58 -23.17260 -46.84408 4131 ft 94 kts 244°
2026-04-27 01:58 -23.17604 -46.85032 4125 ft 94 kts 245°
2026-04-27 01:59 -23.17948 -46.85643 4126 ft 94 kts 245°
2026-04-27 01:59 -23.18223 -46.86276 4125 ft 90 kts 261°
2026-04-27 01:59 -23.18331 -46.86946 4123 ft 89 kts 268°
2026-04-27 01:59 -23.18411 -46.87614 4132 ft 89 kts 268°
2026-04-27 02:00 -23.18484 -46.88280 4131 ft 89 kts 268°
2026-04-27 02:00 -23.18558 -46.88963 4131 ft 89 kts 267°
2026-04-27 02:00 -23.18618 -46.89634 4128 ft 88 kts 276°
2026-04-27 02:00 -23.18350 -46.90212 4128 ft 86 kts 316°
2026-04-27 02:01 -23.17875 -46.90613 4128 ft 86 kts 321°
2026-04-27 02:01 -23.17380 -46.90984 4124 ft 86 kts 326°
2026-04-27 02:01 -23.16859 -46.91318 4124 ft 86 kts 327°
2026-04-27 02:01 -23.16338 -46.91635 4122 ft 85 kts 329°
2026-04-27 02:02 -23.15834 -46.91933 4072 ft 78 kts 329°
2026-04-27 02:02 -23.15346 -46.92223 3948 ft 80 kts 329°
2026-04-27 02:02 -23.14858 -46.92522 3860 ft 80 kts 324°
2026-04-27 02:02 -23.14593 -46.93037 3788 ft 81 kts 278°
2026-04-27 02:03 -23.14775 -46.93626 3708 ft 86 kts 243°
2026-04-27 02:03 -23.15132 -46.94167 3593 ft 90 kts 239°
2026-04-27 02:03 -23.15517 -46.94722 3423 ft 90 kts 239°
2026-04-27 02:03 -23.15987 -46.95142 3252 ft 92 kts 197°
2026-04-27 02:04 -23.16635 -46.95025 3001 ft 95 kts 176°
2026-04-27 02:04 -23.17250 -46.94786 2691 ft 96 kts 171°
2026-04-27 02:04 -23.17835 -46.94500 2491 ft 82 kts 160°
2026-04-27 02:04 -23.18299 -46.94291 2502 ft 77 kts 154°
2026-04-27 02:05 -23.18841 -46.94044 2592 ft 86 kts 157°
2026-04-27 02:05 -23.19378 -46.93814 2781 ft 81 kts 156°
2026-04-27 02:05 -23.19891 -46.93564 2940 ft 82 kts 153°
2026-04-27 02:05 -23.20293 -46.93167 3123 ft 79 kts 109°
2026-04-27 02:06 -23.20325 -46.92594 3281 ft 75 kts 60°
2026-04-27 02:06 -23.19990 -46.92176 3421 ft 74 kts 27°
2026-04-27 02:06 -23.19543 -46.91867 3570 ft 77 kts 26°
2026-04-27 02:06 -23.19093 -46.91539 3749 ft 77 kts 26°
2026-04-27 02:07 -23.18660 -46.91213 3930 ft 74 kts 26°
2026-04-27 02:07 -23.18237 -46.90889 4099 ft 74 kts 26°
2026-04-27 02:07 -23.17817 -46.90563 4261 ft 74 kts 26°
2026-04-27 02:07 -23.17404 -46.90224 4423 ft 74 kts 28°
2026-04-27 02:08 -23.16986 -46.89866 4526 ft 83 kts 30°
2026-04-27 02:08 -23.16484 -46.89454 4500 ft 94 kts 31°
2026-04-27 02:08 -23.15954 -46.89001 4493 ft 99 kts 32°
2026-04-27 02:08 -23.15399 -46.88526 4487 ft 102 kts 32°
2026-04-27 02:09 -23.14913 -46.87952 4481 ft 106 kts 52°
2026-04-27 02:09 -23.14612 -46.87224 4479 ft 105 kts 68°
2026-04-27 02:09 -23.14419 -46.86446 4476 ft 104 kts 71°
2026-04-27 02:09 -23.14256 -46.85686 4474 ft 102 kts 73°
2026-04-27 02:10 -23.14125 -46.84931 4472 ft 102 kts 76°
2026-04-27 02:10 -23.14012 -46.84166 4475 ft 102 kts 77°
2026-04-27 02:10 -23.13918 -46.83406 4476 ft 102 kts 77°
2026-04-27 02:10 -23.13826 -46.82635 4478 ft 102 kts 79°
2026-04-27 02:11 -23.13774 -46.81863 4469 ft 102 kts 82°
2026-04-27 02:11 -23.13729 -46.81090 4472 ft 101 kts 82°
2026-04-27 02:11 -23.13685 -46.80328 4476 ft 103 kts 82°
2026-04-27 02:11 -23.13641 -46.79543 4476 ft 104 kts 81°
2026-04-27 02:12 -23.13591 -46.78745 4475 ft 106 kts 82°
2026-04-27 02:12 -23.13539 -46.77943 4475 ft 106 kts 82°
2026-04-27 02:12 -23.13486 -46.77143 4478 ft 106 kts 82°
2026-04-27 02:12 -23.13435 -46.76323 4474 ft 107 kts 81°
2026-04-27 02:13 -23.13389 -46.75514 4471 ft 107 kts 82°
2026-04-27 02:13 -23.13340 -46.74707 4476 ft 107 kts 82°
2026-04-27 02:13 -23.13287 -46.73886 4466 ft 107 kts 82°
2026-04-27 02:13 -23.13233 -46.73069 4465 ft 107 kts 82°
2026-04-27 02:14 -23.13166 -46.72272 4469 ft 107 kts 79°
2026-04-27 02:14 -23.13077 -46.71466 4468 ft 106 kts 78°
2026-04-27 02:14 -23.12986 -46.70660 4471 ft 106 kts 79°
2026-04-27 02:14 -23.12897 -46.69855 4476 ft 107 kts 79°
2026-04-27 02:15 -23.12802 -46.69055 4473 ft 107 kts 79°
2026-04-27 02:15 -23.12704 -46.68243 4472 ft 107 kts 78°
2026-04-27 02:15 -23.12610 -46.67449 4473 ft 107 kts 79°
2026-04-27 02:15 -23.12515 -46.66646 4470 ft 106 kts 79°
2026-04-27 02:16 -23.12421 -46.65841 4470 ft 106 kts 79°
2026-04-27 02:16 -23.12331 -46.65044 4470 ft 106 kts 79°
2026-04-27 02:16 -23.12202 -46.64261 4470 ft 104 kts 72°
2026-04-27 02:16 -23.12036 -46.63487 4471 ft 104 kts 72°
2026-04-27 02:17 -23.11869 -46.62713 4465 ft 104 kts 72°
2026-04-27 02:17 -23.11702 -46.61961 4471 ft 103 kts 72°
2026-04-27 02:17 -23.11529 -46.61193 4478 ft 104 kts 72°
2026-04-27 02:17 -23.11357 -46.60425 4480 ft 105 kts 72°
2026-04-27 02:18 -23.11184 -46.59652 4479 ft 105 kts 72°
2026-04-27 02:18 -23.11013 -46.58865 4480 ft 106 kts 72°
2026-04-27 02:18 -23.10896 -46.58072 4481 ft 108 kts 90°
2026-04-27 02:18 -23.11061 -46.57274 4582 ft 106 kts 107°
2026-04-27 02:19 -23.11307 -46.56545 4784 ft 99 kts 105°
2026-04-27 02:19 -23.11529 -46.55858 4993 ft 92 kts 104°
2026-04-27 02:19 -23.11735 -46.55225 5196 ft 86 kts 104°
2026-04-27 02:19 -23.11936 -46.54610 5292 ft 94 kts 106°
2026-04-27 02:20 -23.12209 -46.53851 5135 ft 115 kts 112°
2026-04-27 02:20 -23.12519 -46.53048 4973 ft 117 kts 112°
2026-04-27 02:20 -23.12818 -46.52247 4980 ft 110 kts 110°
2026-04-27 02:20 -23.13101 -46.51474 4995 ft 109 kts 110°
2026-04-27 02:21 -23.13378 -46.50709 4983 ft 109 kts 110°
2026-04-27 02:21 -23.13655 -46.49937 4990 ft 107 kts 110°
2026-04-27 02:21 -23.13913 -46.49181 4996 ft 107 kts 108°
2026-04-27 02:21 -23.14164 -46.48410 5001 ft 107 kts 108°
2026-04-27 02:22 -23.14415 -46.47642 4996 ft 107 kts 108°
2026-04-27 02:22 -23.14663 -46.46878 4995 ft 107 kts 108°
2026-04-27 02:22 -23.14911 -46.46112 4996 ft 106 kts 108°
2026-04-27 02:22 -23.15152 -46.45342 4993 ft 106 kts 106°
2026-04-27 02:23 -23.15367 -46.44575 4997 ft 105 kts 105°
2026-04-27 02:23 -23.15565 -46.43806 4997 ft 106 kts 102°
2026-04-27 02:23 -23.15744 -46.43031 5002 ft 106 kts 102°
2026-04-27 02:23 -23.15924 -46.42253 4993 ft 105 kts 102°
2026-04-27 02:24 -23.16081 -46.41467 4998 ft 105 kts 99°
2026-04-27 02:24 -23.16212 -46.40684 4993 ft 105 kts 97°
2026-04-27 02:24 -23.16320 -46.39890 4991 ft 105 kts 96°
2026-04-27 02:24 -23.16439 -46.39104 4995 ft 106 kts 99°
2026-04-27 02:25 -23.16600 -46.38318 4992 ft 106 kts 104°
2026-04-27 02:25 -23.16809 -46.37544 4984 ft 107 kts 106°
2026-04-27 02:25 -23.17031 -46.36769 4990 ft 107 kts 106°
2026-04-27 02:25 -23.17262 -46.35986 4992 ft 109 kts 106°
2026-04-27 02:26 -23.17497 -46.35197 4992 ft 110 kts 107°
2026-04-27 02:26 -23.17738 -46.34393 4996 ft 111 kts 106°
2026-04-27 02:26 -23.17982 -46.33585 4990 ft 113 kts 106°
2026-04-27 02:26 -23.18225 -46.32776 4987 ft 111 kts 105°
2026-04-27 02:27 -23.18463 -46.31981 4995 ft 110 kts 106°
2026-04-27 02:27 -23.18701 -46.31172 4925 ft 112 kts 107°
2026-04-27 02:27 -23.18933 -46.30370 4901 ft 109 kts 106°
2026-04-27 02:27 -23.19154 -46.29594 4899 ft 106 kts 106°
2026-04-27 02:28 -23.19355 -46.28814 4895 ft 105 kts 103°
2026-04-27 02:28 -23.19528 -46.28035 4888 ft 106 kts 101°
2026-04-27 02:28 -23.19690 -46.27244 4890 ft 108 kts 98°
2026-04-27 02:28 -23.19835 -46.26424 4878 ft 110 kts 98°
2026-04-27 02:29 -23.19980 -46.25608 4890 ft 109 kts 98°
2026-04-27 02:29 -23.20128 -46.24795 4894 ft 109 kts 99°
2026-04-27 02:29 -23.20277 -46.23978 4899 ft 109 kts 98°
2026-04-27 02:29 -23.20402 -46.23161 4906 ft 110 kts 96°
2026-04-27 02:30 -23.20514 -46.22335 4898 ft 110 kts 96°
2026-04-27 02:30 -23.20622 -46.21492 4895 ft 111 kts 95°
2026-04-27 02:30 -23.20720 -46.20664 4887 ft 110 kts 94°
2026-04-27 02:30 -23.20801 -46.19833 4885 ft 109 kts 96°
2026-04-27 02:31 -23.20910 -46.19011 4878 ft 109 kts 96°
2026-04-27 02:31 -23.21023 -46.18195 4874 ft 109 kts 96°
2026-04-27 02:31 -23.21139 -46.17381 4876 ft 108 kts 96°
2026-04-27 02:31 -23.21257 -46.16571 4875 ft 108 kts 96°
2026-04-27 02:32 -23.21377 -46.15765 4873 ft 108 kts 97°
2026-04-27 02:32 -23.21498 -46.14955 4875 ft 107 kts 96°
2026-04-27 02:32 -23.21619 -46.14158 4877 ft 107 kts 96°
2026-04-27 02:32 -23.21740 -46.13352 4878 ft 107 kts 95°
2026-04-27 02:33 -23.21842 -46.12551 4877 ft 107 kts 94°
2026-04-27 02:33 -23.21913 -46.11740 4879 ft 107 kts 91°
2026-04-27 02:33 -23.21974 -46.10935 4877 ft 107 kts 91°
2026-04-27 02:33 -23.22033 -46.10125 4876 ft 107 kts 91°
2026-04-27 02:34 -23.22090 -46.09304 4872 ft 107 kts 91°
2026-04-27 02:34 -23.22158 -46.08491 4869 ft 108 kts 97°
2026-04-27 02:34 -23.22325 -46.07685 4868 ft 109 kts 101°
2026-04-27 02:34 -23.22507 -46.06883 4865 ft 109 kts 101°
2026-04-27 02:35 -23.22691 -46.06081 4866 ft 109 kts 102°
2026-04-27 02:35 -23.22873 -46.05283 4868 ft 108 kts 102°
2026-04-27 02:35 -23.23056 -46.04485 4862 ft 108 kts 102°
2026-04-27 02:35 -23.23241 -46.03684 4864 ft 108 kts 102°
2026-04-27 02:36 -23.23424 -46.02891 4867 ft 107 kts 102°
2026-04-27 02:36 -23.23604 -46.02098 4844 ft 108 kts 102°
2026-04-27 02:36 -23.23812 -46.01302 4722 ft 110 kts 105°
2026-04-27 02:36 -23.24035 -46.00507 4603 ft 110 kts 107°
2026-04-27 02:37 -23.24277 -45.99721 4484 ft 110 kts 107°
2026-04-27 02:37 -23.24526 -45.98922 4363 ft 110 kts 107°
2026-04-27 02:37 -23.24770 -45.98140 4243 ft 109 kts 107°
2026-04-27 02:37 -23.25014 -45.97355 4119 ft 107 kts 107°
2026-04-27 02:38 -23.25244 -45.96590 3996 ft 106 kts 106°
2026-04-27 02:38 -23.25471 -45.95822 3831 ft 106 kts 106°
2026-04-27 02:38 -23.25694 -45.95060 3677 ft 104 kts 107°
2026-04-27 02:38 -23.25911 -45.94315 3528 ft 102 kts 106°
2026-04-27 02:39 -23.26128 -45.93578 3380 ft 101 kts 106°
2026-04-27 02:39 -23.26345 -45.92847 3258 ft 101 kts 106°
2026-04-27 02:39 -23.26565 -45.92112 3151 ft 100 kts 106°
2026-04-27 02:39 -23.26749 -45.91404 3167 ft 97 kts 91°
2026-04-27 02:40 -23.26575 -45.90720 3172 ft 92 kts 57°
2026-04-27 02:40 -23.26188 -45.90158 3173 ft 91 kts 47°
2026-04-27 02:40 -23.25756 -45.89661 3174 ft 89 kts 43°
2026-04-27 02:40 -23.25290 -45.89202 3173 ft 90 kts 33°
2026-04-27 02:41 -23.24682 -45.89075 3173 ft 90 kts 351°
2026-04-27 02:41 -23.24107 -45.89359 3179 ft 91 kts 331°
2026-04-27 02:41 -23.23587 -45.89760 3182 ft 91 kts 325°
2026-04-27 02:41 -23.23094 -45.90191 3184 ft 91 kts 323°
2026-04-27 02:42 -23.22603 -45.90627 3148 ft 89 kts 324°
2026-04-27 02:42 -23.22104 -45.90939 3143 ft 79 kts 353°
2026-04-27 02:42 -23.21576 -45.90765 3086 ft 82 kts 39°
2026-04-27 02:42 -23.21224 -45.90274 3006 ft 81 kts 55°
2026-04-27 02:43 -23.20921 -45.89759 2922 ft 80 kts 56°
2026-04-27 02:43 -23.20667 -45.89213 2828 ft 81 kts 75°
2026-04-27 02:43 -23.20748 -45.88604 2676 ft 83 kts 117°
2026-04-27 02:43 -23.21112 -45.88118 2505 ft 80 kts 134°
2026-04-27 02:44 -23.21506 -45.87710 2356 ft 76 kts 136°
2026-04-27 02:44 -23.21873 -45.87304 2220 ft 75 kts 135°
2026-04-27 02:44 -23.22234 -45.86908 2137 ft 69 kts 134°
2026-04-27 02:44 -23.22516 -45.86600 2130 ft 41 kts 135°
2026-04-27 02:45 -23.22691 -45.86416 2130 ft 29 kts 130°
2026-04-27 02:45 -23.22810 -45.86282 2130 ft 22 kts 136°
2026-04-27 02:45 -23.22921 -45.86160 2130 ft 22 kts 134°
2026-04-27 02:45 -23.23029 -45.86041 2130 ft 21 kts 137°
2026-04-27 02:46 -23.23144 -45.85920 2130 ft 24 kts 136°
2026-04-27 02:46 -23.23266 -45.85788 2130 ft 24 kts 135°
2026-04-27 02:46 -23.23382 -45.85661 2131 ft 23 kts 132°
2026-04-27 02:46 -23.23494 -45.85540 2131 ft 22 kts 135°
2026-04-27 02:47 -23.23601 -45.85423 2131 ft 21 kts 135°
2026-04-27 02:47 -23.23687 -45.85329 2131 ft 13 kts 133°
2026-04-27 02:47 -23.23764 -45.85270 2131 ft 14 kts 175°
2026-04-27 02:47 -23.23865 -45.85284 2131 ft 14 kts 186°
2026-04-27 02:48 -23.23973 -45.85289 2131 ft 15 kts 181°
2026-04-27 02:48 -23.24077 -45.85322 2131 ft 16 kts 216°
2026-04-27 02:48 -23.24159 -45.85408 2131 ft 16 kts 224°
2026-04-27 02:48 -23.24245 -45.85500 2130 ft 17 kts 224°
2026-04-27 02:49 -23.24332 -45.85594 2130 ft 17 kts 224°
2026-04-27 02:49 -23.24421 -45.85691 2130 ft 18 kts 223°
2026-04-27 02:49 -23.24515 -45.85788 2130 ft 18 kts 223°
2026-04-27 02:49 -23.24578 -45.85854 2130 ft 9 kts 223°
2026-04-27 02:50 -23.24602 -45.85877 2130 ft 4 kts 212°
2026-04-27 02:50 -23.24602 -45.85905 2130 ft 4 kts 263°
2026-04-27 02:50 -23.24606 -45.85906 2130 ft 0 kts 117°